Home   Weather   Abilene   Past weeks

Flag for USA Past Weather in Abilene, Texas, USA — Yesterday and Last 2 Weeks

Now
62 °F

Clear.


Feels Like: 62 °F
Forecast: 58 / 86 °F
Wind: 14 mph from Southwest

Location: Abilene Regional Airport

Current Time: Feb 23, 2017 at 8:12:25 am

Latest Report: Feb 23, 2017 at 6:52 am


Visibility: 10 mi

Pressure: 29.59 "Hg (27.81 "Hg at 524m altitude)

Humidity: 38%

Dew Point: 36 °F

Location of AbileneLocation

Past Weather in Abilene — Graph

°F

Abilene Temperature Yesterday

Maximum temperature yesterday: 87 °F (at 3:52 pm)
Minimum temperature yesterday: 47 °F (at 12:52 am)
Average temperature yesterday: 66 °F

High & Low Weather Summary for the Past Weeks

 TemperatureHumidityPressure
High89 °F (Feb 11, 3:52 pm)100% (Feb 13, 5:35 pm)30.38 "Hg (Feb 13, 5:35 pm)
Low31 °F (Feb 9, 6:52 am)16% (Feb 21, 4:52 pm)29.57 "Hg (Feb 23, 4:52 am)
Average55 °F59%29.97 "Hg
* Reported Feb 8 6:52 am — Feb 23 6:52 am, Abilene, Weather by CustomWeather, © 2017

Note: Actual official high and low records may vary slightly from our data, if they occured in-between our weather recording intervals... More about our weather records

Advertising

Abilene Weather History for the Previous 24 Hours

Scroll right to see more
 ConditionsComfort  
Time TempWeatherWind HumidityBarometerVisibility
6:52 am
Thu, Feb 23
62 °FClear.14 mph38%29.59 "Hg10 mi
5:52 am63 °FClear.14 mph37%29.58 "Hg10 mi
4:52 am62 °FClear.13 mph39%29.57 "Hg10 mi
3:52 am60 °FClear.7 mph41%29.59 "Hg10 mi
2:52 am61 °FClear.10 mph41%29.61 "Hg10 mi
1:52 am60 °FClear.9 mph47%29.63 "Hg10 mi
12:52 am58 °FClear.8 mph54%29.65 "Hg10 mi
11:52 pm
Wed, Feb 22
58 °FClear.10 mph56%29.67 "Hg10 mi
10:52 pm60 °FClear.8 mph53%29.69 "Hg10 mi
9:52 pm61 °FClear.8 mph54%29.70 "Hg10 mi
8:52 pm62 °FClear.9 mph54%29.72 "Hg10 mi
7:52 pm66 °FClear.7 mph43%29.73 "Hg10 mi
6:52 pm76 °FClear.6 mph26%29.72 "Hg10 mi
5:52 pm82 °FSunny.8 mph20%29.72 "Hg10 mi
4:52 pm85 °FSunny.10 mph18%29.72 "Hg10 mi
3:52 pm87 °FSunny.14 mph17%29.73 "Hg10 mi
2:52 pm86 °FSunny.15 mph20%29.74 "Hg10 mi
1:52 pm85 °FSunny.13 mph20%29.78 "Hg10 mi
12:52 pm82 °FSunny.8 mph23%29.81 "Hg10 mi
11:52 am79 °FSunny.9 mph24%29.85 "Hg10 mi
10:52 am75 °FSunny.12 mph25%29.88 "Hg10 mi
9:52 am70 °FSunny.10 mph31%29.89 "Hg10 mi
8:52 am60 °FSunny.3 mph46%29.89 "Hg10 mi
Weather by CustomWeather, © 2017

See weather overviewHow to use our weather pages